Probability
3 6 10 16 23 26 26 32 35 29 32 32 29 26 26 26 29 29 23 23 19 19 16 16 16 19 16 10 10 10 16 16 13 13 13 23 19 23 19 19 13 10 13
6 10 26 29 23 23 23 26 29 23 26 29 26 19 26 32 29 29 23 23 16 13 19 16 16 16 13 10 10 3 10 16 10 10 6 6 16 23 19 19 23 10 10
3 6 16 32 32 29 23 26 23 23 23 23 23 23 23 26 29 26 26 23 13 13 16 16 16 16 10 13 3 3 3 6 10 6 0 3 6 16 16 16 16 13 10
3 10 10 29 32 35 26 26 23 26 23 23 23 23 23 23 29 23 23 13 13 16 19 16 10 3 3 6 6 3 3 3 3 0 0 0 0 10 13 13 10 13 10
10 10 19 29 32 29 29 32 23 26 23 26 23 26 26 26 29 23 23 19 16 16 13 10 10 6 3 3 3 3 3 0 0 0 0 0 3 6 10 10 13 16 16
10 13 23 29 26 26 26 26 23 23 19 26 26 26 26 26 29 26 23 19 19 13 10 6 6 6 6 6 6 6 3 0 0 0 0 0 3 10 6 10 10 10 13
13 19 16 23 23 23 23 23 23 23 19 19 23 26 26 26 26 23 23 23 16 13 10 6 6 10 10 6 6 3 3 0 0 0 0 3 3 10 6 6 6 10 6
6 16 13 23 23 23 23 23 23 23 19 19 23 26 26 23 16 19 19 19 13 13 3 6 10 6 6 6 3 0 0 0 0 0 0 3 0 6 6 6 6 6 0
6 13 13 19 19 19 19 23 23 23 19 19 19 19 19 16 19 13 13 16 10 13 10 10 10 6 6 6 0 0 0 0 0 0 0 0 0 6 6 6 6 6 3
10 10 13 16 13 19 19 19 16 16 19 16 13 13 10 10 10 10 10 10 10 13 10 10 10 6 3 3 0 0 0 0 0 0 0 0 0 0 6 10 10 3 3
10 10 13 19 13 16 16 6 6 6 6 3 3 3 3 10 10 6 3 6 6 3 3 3 6 3 3 0 0 0 0 0 0 0 0 0 0 3 10 10 6 3 3
6 10 13 13 6 3 6 10 10 6 6 6 6 6 6 10 6 3 0 3 6 3 3 3 3 0 0 0 0 0 0 0 0 0 0 0 0 3 3 6 6 3 3
0 3 10 13 3 3 6 6 10 10 6 3 3 3 3 3 6 6 6 6 6 0 3 3 0 0 0 0 0 0 0 0 0 0 0 0 3 3 3 3 3 3 3
0 0 3 6 6 3 3 6 6 6 6 3 3 3 3 3 3 6 6 6 6 6 6 3 3 0 0 0 0 0 0 0 0 0 0 0 0 0 0 0 3 3 3
0 0 3 3 0 6 3 6 6 6 6 6 6 6 3 3 3 3 3 3 3 6 6 6 3 0 0 0 0 0 0 0 0 0 0 0 0 0 0 0 0 0 3
0 0 3 3 0 0 0 6 6 6 6 3 3 3 3 3 3 3 3 3 3 3 3 6 3 0 0 0 0 0 0 0 0 0 0 0 0 0 0 0 0 0 0
0 0 3 0 0 0 0 0 0 6 3 3 3 3 3 3 3 3 3 3 3 3 3 3 3 0 0 0 0 0 0 0 0 0 0 0 0 0 0 0 0 0 0
0 0 0 0 0 0 0 0 0 0 0 0 3 3 3 3 3 3 3 3 3 3 3 3 3 0 0 0 0 0 0 0 0 0 0 0 0 0 0 0 0 0 0
0 0 0 0 0 0 0 0 0 0 0 0 0 0 0 0 3 3 3 3 3 3 3 3 3 0 0 0 0 0 0 0 0 0 0 0 0 0 0 0 0 0 0
0 0 0 0 0 0 0 0 0 0 0 0 0 0 0 0 0 3 3 3 3 3 3 3 0 0 0 0 0 0 0 0 0 0 0 0 0 0 0 0 0 0 0
0 0 0 0 0 0 0 0 0 0 0 0 0 0 0 0 0 0 0 0 0 0 0 0 0 0 0 0 0 0 0 0 0 0 0 0 0 0 0 0 0 0 0
0 0 0 0 0 0 0 0 0 0 0 0 0 0 0 0 0 0 0 0 0 0 0 0 0 0 0 0 0 0 0 0 0 0 0 0 0 0 0 0 0 0 0
0 0 0 0 0 0 0 0 0 0 0 0 0 0 0 0 0 0 0 0 0 0 0 0 0 0 0 0 0 0 0 0 0 0 0 0 0 0 0 0 0 0 0
0 0 0 0 0 0 0 0 0 0 0 0 0 0 0 0 0 0 0 0 0 0 0 0 0 0 0 0 0 0 0 0 0 0 0 0 0 0 0 0 0 0 0
0 0 0 0 0 0 0 0 0 0 0 0 0 0 0 0 0 0 0 0 0 0 0 0 0 0 0 0 0 0 0 0 0 0 0 0 0 0 0 0 0 0 0
0 0 0 0 0 0 0 0 0 0 0 0 0 0 0 0 0 0 0 0 0 0 0 0 0 0 0 0 0 0 0 0 0 0 0 0 0 0 0 0 0 0 0
Height
5840 5841 5841 5842 5842 5842 5842 5843 5843 5844 5844 5844 5844 5845 5845 5845 5845 5845 5845 5845 5845 5845 5845 5846 5846 5846 5846 5846 5846 5846 5847 5847 5847 5847 5847 5847 5848 5848 5848 5848 5848 5847 5847
5838 5838 5839 5839 5840 5840 5840 5841 5841 5842 5842 5842 5843 5843 5843 5843 5844 5843 5843 5844 5844 5844 5844 5844 5844 5845 5845 5845 5845 5845 5846 5846 5846 5846 5846 5847 5847 5847 5847 5847 5847 5847 5847
5835 5835 5836 5837 5837 5837 5838 5838 5839 5840 5840 5840 5841 5841 5841 5841 5842 5842 5842 5842 5842 5842 5842 5843 5843 5843 5843 5844 5844 5844 5844 5844 5845 5845 5845 5845 5846 5846 5846 5846 5846 5846 5846
5832 5832 5833 5834 5834 5835 5835 5836 5837 5837 5837 5838 5838 5839 5839 5839 5839 5840 5840 5840 5840 5840 5841 5841 5841 5841 5842 5842 5842 5842 5843 5843 5843 5843 5844 5844 5844 5844 5845 5845 5845 5845 5845
5829 5829 5830 5831 5831 5832 5833 5833 5834 5834 5835 5835 5836 5836 5836 5837 5837 5837 5837 5837 5838 5838 5839 5839 5839 5839 5840 5840 5840 5840 5841 5841 5841 5842 5842 5842 5843 5843 5843 5843 5843 5843 5843
5825 5826 5827 5827 5828 5829 5829 5830 5831 5831 5831 5832 5832 5833 5833 5833 5834 5834 5834 5834 5835 5835 5836 5836 5837 5837 5837 5837 5838 5838 5838 5839 5839 5839 5840 5840 5841 5841 5841 5841 5842 5842 5842
5821 5822 5823 5823 5824 5825 5826 5826 5827 5828 5828 5828 5829 5829 5830 5830 5830 5830 5831 5831 5832 5832 5833 5833 5834 5834 5834 5835 5835 5835 5835 5836 5837 5837 5837 5838 5838 5839 5839 5839 5839 5839 5840
5817 5818 5819 5819 5820 5821 5822 5823 5823 5824 5824 5825 5825 5825 5826 5826 5826 5826 5827 5827 5828 5829 5829 5830 5831 5831 5831 5831 5832 5832 5832 5833 5834 5834 5835 5835 5836 5836 5836 5836 5837 5837 5837
5812 5813 5814 5815 5816 5817 5817 5818 5819 5819 5820 5821 5821 5821 5822 5822 5822 5823 5823 5824 5824 5825 5826 5826 5827 5827 5828 5828 5828 5829 5829 5830 5830 5831 5832 5832 5832 5833 5833 5833 5834 5834 5835
5807 5808 5809 5810 5811 5812 5813 5814 5814 5815 5815 5816 5817 5817 5817 5817 5818 5818 5819 5819 5820 5821 5821 5822 5823 5823 5824 5824 5824 5825 5825 5826 5826 5827 5828 5828 5829 5830 5830 5830 5831 5831 5831
5802 5803 5804 5805 5806 5807 5808 5809 5809 5810 5811 5811 5812 5812 5812 5813 5813 5813 5814 5815 5815 5816 5817 5817 5818 5819 5819 5820 5820 5820 5821 5822 5822 5823 5823 5824 5825 5825 5826 5826 5827 5828 5828
5796 5797 5799 5800 5801 5801 5802 5803 5804 5805 5805 5806 5806 5807 5807 5808 5808 5808 5809 5810 5810 5811 5812 5813 5813 5814 5814 5815 5815 5815 5816 5817 5817 5818 5819 5820 5820 5821 5821 5822 5823 5823 5824
5790 5791 5792 5793 5795 5796 5797 5797 5798 5799 5800 5800 5801 5801 5802 5802 5802 5803 5804 5804 5805 5806 5807 5807 5808 5809 5809 5810 5810 5810 5811 5811 5812 5813 5813 5814 5815 5816 5816 5817 5818 5818 5819
5783 5785 5786 5787 5788 5789 5790 5791 5792 5793 5794 5794 5795 5795 5796 5796 5797 5797 5798 5798 5799 5800 5800 5801 5802 5803 5803 5804 5804 5805 5805 5806 5806 5807 5808 5808 5809 5810 5810 5811 5812 5813 5813
5776 5777 5779 5780 5781 5782 5783 5785 5785 5786 5787 5788 5788 5789 5789 5790 5790 5791 5791 5792 5793 5793 5794 5795 5796 5796 5797 5798 5798 5799 5799 5799 5800 5801 5802 5802 5803 5804 5804 5805 5805 5806 5807
5768 5770 5771 5773 5774 5775 5776 5777 5778 5779 5780 5781 5781 5782 5782 5782 5783 5784 5784 5785 5786 5786 5787 5788 5789 5790 5790 5791 5792 5792 5793 5793 5794 5794 5795 5796 5796 5797 5798 5798 5799 5799 5800
5760 5762 5763 5765 5766 5767 5768 5769 5770 5771 5772 5773 5773 5774 5774 5775 5775 5776 5777 5778 5778 5779 5780 5780 5781 5782 5783 5784 5784 5785 5786 5786 5787 5787 5788 5789 5789 5790 5790 5791 5791 5792 5793
5751 5753 5755 5756 5757 5759 5760 5761 5762 5763 5764 5765 5765 5766 5766 5767 5767 5768 5769 5769 5770 5771 5772 5772 5773 5774 5775 5776 5776 5777 5778 5779 5779 5779 5780 5781 5781 5782 5783 5783 5784 5785 5785
5742 5744 5745 5747 5748 5750 5751 5752 5753 5754 5755 5755 5756 5757 5757 5758 5758 5759 5759 5760 5761 5762 5763 5764 5765 5766 5766 5767 5768 5769 5769 5770 5771 5771 5772 5772 5773 5773 5775 5775 5776 5777 5777
5732 5734 5735 5737 5738 5740 5741 5742 5743 5744 5745 5746 5747 5747 5748 5748 5749 5749 5750 5751 5752 5753 5754 5755 5756 5756 5757 5758 5759 5760 5761 5761 5762 5762 5763 5763 5764 5765 5766 5767 5767 5768 5769
5722 5724 5725 5727 5728 5729 5731 5732 5733 5734 5735 5736 5737 5737 5738 5739 5739 5740 5740 5741 5742 5743 5744 5745 5746 5746 5747 5748 5749 5750 5751 5752 5752 5753 5753 5754 5755 5755 5756 5757 5758 5759 5761
5711 5712 5714 5716 5717 5719 5720 5721 5722 5723 5724 5725 5726 5726 5727 5728 5729 5729 5729 5730 5731 5732 5733 5734 5735 5736 5737 5738 5739 5740 5741 5742 5742 5743 5743 5744 5745 5745 5747 5747 5749 5750 5751
5698 5701 5702 5704 5706 5707 5708 5710 5711 5712 5713 5714 5715 5715 5716 5717 5718 5718 5719 5720 5720 5721 5722 5723 5725 5726 5727 5727 5727 5728 5729 5730 5731 5732 5732 5733 5734 5735 5736 5737 5739 5740 5741
5686 5688 5690 5692 5693 5695 5696 5698 5699 5700 5701 5702 5703 5704 5704 5705 5706 5706 5707 5708 5709 5710 5711 5712 5713 5714 5715 5716 5716 5716 5718 5718 5719 5721 5722 5722 5723 5724 5725 5727 5728 5729 5731
5673 5675 5677 5679 5681 5682 5684 5685 5686 5687 5688 5689 5690 5691 5692 5693 5693 5694 5694 5695 5696 5697 5698 5699 5700 5701 5702 5703 5704 5705 5705 5706 5707 5708 5710 5711 5712 5713 5714 5715 5717 5718 5720
5660 5662 5664 5666 5668 5669 5670 5672 5673 5674 5675 5676 5677 5678 5679 5680 5680 5681 5681 5682 5683 5684 5685 5686 5687 5688 5689 5690 5691 5692 5693 5694 5695 5696 5698 5699 5700 5701 5702 5704 5705 5707 5709
Wind_Speed
12 12 12 11 11 11 10 9 9 9 9 8 7 7 7 6 6 5 5 5 4 4 4 4 3 3 3 3 3 3 3 3 4 4 4 3 3 3 3 3 3 3 3
14 13 13 13 12 12 11 11 10 10 10 10 9 9 8 8 7 7 6 6 6 6 5 5 4 4 4 4 4 4 4 5 5 5 5 4 4 4 4 4 4 4 4
14 14 14 14 14 13 12 12 12 12 11 11 11 10 10 9 9 8 8 8 8 7 7 7 6 6 6 6 6 6 6 6 6 6 6 6 6 6 5 5 4 4 4
16 16 15 15 15 15 14 14 14 13 13 13 13 12 12 11 10 10 10 9 9 9 8 8 8 7 7 7 7 7 8 8 8 8 8 7 7 7 6 6 6 6 6
17 17 16 16 16 16 16 15 15 14 14 14 14 14 13 13 13 12 12 11 11 10 10 10 9 9 9 9 9 9 9 10 9 9 9 9 9 8 8 8 7 7 8
18 18 18 17 17 17 17 16 16 16 15 15 15 15 14 14 14 14 14 13 13 12 12 12 11 11 11 11 11 11 11 11 11 11 11 10 10 10 10 10 9 9 9
19 19 19 19 18 18 18 18 17 17 17 16 16 16 16 16 16 16 15 15 15 14 14 14 13 13 13 12 13 13 13 13 13 12 12 12 12 12 11 11 11 11 10
20 20 20 20 20 19 19 19 19 18 18 18 17 17 17 17 17 17 17 17 17 16 16 15 15 15 14 14 14 14 14 14 14 14 14 14 13 13 13 13 12 12 12
22 22 22 21 21 21 21 20 20 20 20 19 19 19 19 19 19 19 19 19 18 18 17 17 17 16 16 16 16 16 16 16 16 16 16 15 15 15 14 14 14 14 13
24 23 23 23 23 22 22 21 21 21 21 21 20 20 20 21 21 21 21 20 20 20 19 19 18 18 18 17 17 17 17 18 18 17 17 17 17 17 16 15 15 15 14
25 25 24 24 24 24 23 23 23 23 22 22 21 21 21 22 22 22 21 22 22 22 22 21 20 20 19 19 19 19 19 19 20 20 19 19 19 19 19 18 17 17 16
27 26 26 26 25 25 25 25 25 25 24 23 23 23 23 23 23 23 23 23 23 23 23 23 23 22 21 21 21 21 21 21 22 21 21 21 21 21 21 20 20 19 19
29 28 28 28 28 27 27 26 27 27 26 25 25 25 25 25 25 25 25 25 25 25 25 25 24 24 23 23 23 23 23 22 23 23 22 22 22 22 22 22 22 21 21
30 30 30 30 30 29 29 28 27 27 27 27 27 27 27 27 27 27 27 27 27 27 27 27 26 26 26 25 25 25 24 24 25 24 24 24 24 24 24 24 24 24 24
33 32 32 32 31 31 31 30 30 29 29 29 29 29 28 28 29 29 29 29 29 29 28 28 28 28 27 27 27 27 26 25 26 26 25 25 25 25 26 25 26 26 26
34 34 34 33 33 33 33 32 32 31 31 31 31 30 30 30 30 31 31 31 31 31 30 30 30 30 29 29 29 28 27 27 28 28 27 26 26 26 26 27 27 27 26
36 35 35 35 35 35 35 34 34 34 33 33 33 33 33 32 32 33 33 33 33 33 33 32 32 31 31 31 31 30 29 30 30 30 29 29 28 28 28 28 28 28 27
37 37 37 37 37 37 36 36 36 36 35 35 35 35 35 35 35 35 35 35 35 35 35 35 34 33 33 33 32 32 32 32 32 32 32 31 30 30 30 30 30 30 29
39 39 39 39 38 38 38 38 38 37 37 37 37 37 37 37 37 37 37 37 37 37 37 37 36 36 35 34 34 34 33 34 33 33 34 34 33 32 32 31 31 31 31
41 41 41 40 40 40 39 39 39 39 39 39 39 39 39 39 39 39 39 39 39 38 38 38 38 38 36 35 36 35 35 36 35 35 35 35 35 35 34 33 33 33 33
42 42 41 41 40 41 40 40 40 41 41 41 41 41 41 41 40 40 41 40 40 40 40 40 39 39 39 37 37 37 38 38 38 37 37 37 38 37 37 35 35 34 34
44 44 44 43 42 42 42 43 43 42 43 42 42 42 42 42 42 41 41 41 41 41 41 41 41 41 40 40 39 39 39 39 39 39 39 39 39 39 39 37 36 36 36
45 45 45 45 45 44 45 45 45 44 44 44 43 44 44 44 44 43 43 42 42 42 41 42 42 42 43 43 42 42 41 41 41 40 41 41 40 40 40 39 38 38 38
47 47 47 47 47 47 47 47 47 46 46 45 45 46 45 45 46 45 45 45 45 44 45 44 44 44 44 44 43 43 43 43 43 42 42 42 42 42 42 41 40 40 40
47 48 48 48 49 49 49 49 48 48 48 48 47 47 47 47 47 47 47 47 47 47 47 47 47 46 46 45 45 45 44 44 44 44 43 43 43 43 43 43 43 42 42
47 47 48 48 49 49 49 50 50 50 49 49 49 49 49 49 49 49 49 49 49 49 49 49 49 48 48 48 47 47 46 46 45 45 45 45 44 43 44 44 44 42 42
Wind_Direction
240 241 240 240 241 239 241 239 241 242 245 245 245 245 244 248 250 250 250 252 255 251 241 239 240 245 248 241 238 232 236 238 231 232 235 232 234 242 245 249 255 257 259
240 240 241 242 243 243 241 242 244 245 248 248 248 249 247 248 250 251 252 256 255 250 245 244 246 250 253 249 244 242 242 243 241 240 242 241 241 244 246 247 251 255 258
240 241 243 243 245 246 245 246 247 248 249 249 248 248 250 251 252 253 255 257 257 251 247 246 251 254 257 258 254 250 246 245 246 247 246 248 247 247 248 247 249 252 256
242 243 245 246 248 249 249 250 249 248 248 249 251 251 251 251 252 255 256 257 258 256 251 251 254 256 258 259 259 256 251 248 247 251 246 248 251 250 249 250 252 254 258
244 246 246 248 249 249 251 251 250 250 249 250 252 252 252 253 255 254 254 253 254 255 254 254 255 256 257 257 259 258 254 248 246 251 249 247 250 251 251 252 255 258 260
246 246 247 248 249 250 251 251 251 251 251 251 252 253 254 254 254 253 253 251 251 252 254 256 257 256 256 258 258 255 252 249 249 249 250 250 252 252 251 252 256 256 257
246 247 248 248 249 250 250 250 250 251 252 253 254 255 256 256 254 254 253 253 252 251 253 255 257 258 259 259 258 255 250 249 251 250 251 252 255 254 253 254 256 256 255
246 248 249 249 250 249 249 250 251 252 253 254 256 257 258 258 257 255 254 254 254 252 252 253 255 258 258 260 259 255 251 250 252 251 251 253 256 257 255 254 255 256 256
248 249 250 250 250 250 249 250 251 252 254 255 256 257 258 259 258 256 255 255 254 253 252 253 256 257 258 259 259 255 253 250 252 251 253 255 257 258 257 256 255 254 254
249 250 250 251 251 250 250 251 251 253 254 255 257 258 258 259 258 257 257 256 256 255 254 255 257 259 259 257 257 255 253 250 251 251 253 254 255 256 256 256 256 254 253
249 250 250 250 250 251 252 253 253 254 255 256 256 258 259 259 258 257 257 256 257 256 255 255 257 258 258 256 257 256 255 252 251 251 253 254 256 256 255 255 255 255 253
249 249 250 249 249 251 254 255 255 255 256 257 257 260 259 258 258 258 258 257 256 256 257 257 256 257 256 255 257 257 257 255 253 252 253 254 255 255 255 254 253 253 254
247 248 249 250 250 252 254 256 257 256 256 257 258 260 260 260 259 259 258 258 257 257 258 258 258 257 255 257 258 258 258 257 254 253 253 255 256 256 255 253 253 254 255
247 248 249 251 253 253 254 256 257 257 257 257 259 259 260 261 259 259 259 259 259 259 259 258 258 257 257 257 258 258 258 258 256 254 254 255 256 257 256 255 254 254 255
248 249 250 251 252 253 253 255 257 259 259 259 259 259 260 260 260 260 260 260 260 260 259 258 258 258 257 258 259 258 258 258 257 255 255 255 256 256 257 257 256 256 256
249 249 250 251 252 253 254 255 257 259 260 260 260 260 260 260 260 260 260 260 259 259 259 259 258 257 257 258 258 258 258 258 257 255 255 256 256 257 258 259 258 257 255
249 249 250 252 253 253 255 256 257 258 260 261 261 261 261 261 260 260 260 260 259 259 259 259 259 258 258 259 260 258 259 258 258 257 256 257 258 258 259 259 258 256 255
249 250 251 252 252 253 255 257 258 259 259 261 262 262 262 262 261 261 261 260 259 258 258 259 259 260 259 259 259 259 259 259 260 258 257 257 259 259 258 259 257 256 255
250 250 251 252 252 253 255 257 258 259 260 260 261 262 262 262 262 261 261 259 259 259 258 258 258 259 260 260 259 259 260 259 260 259 258 258 259 258 257 258 256 256 255
250 251 252 253 254 254 255 257 258 259 260 260 261 262 262 262 262 261 261 260 259 259 259 258 259 259 261 261 260 260 260 260 259 260 260 259 258 258 258 257 257 255 254
251 251 253 253 254 255 255 256 258 259 260 260 261 262 261 262 261 260 260 260 259 259 259 259 259 259 260 261 261 261 260 260 259 259 260 260 259 259 258 258 257 255 254
251 252 252 253 254 255 256 257 258 259 260 261 261 261 261 261 261 261 261 260 259 259 259 259 259 259 261 262 262 262 261 261 260 259 259 259 258 258 257 258 257 255 255
251 251 252 253 254 256 257 258 259 260 260 260 260 261 261 261 262 261 260 259 259 259 259 258 259 260 261 262 263 263 262 261 261 260 258 257 257 257 257 257 256 256 255
251 251 253 254 255 255 257 258 259 260 260 260 260 260 261 261 262 262 261 260 260 260 260 260 261 262 262 262 262 263 262 261 260 258 257 257 257 257 256 256 256 256 255
252 252 253 254 255 256 257 258 259 260 260 260 260 260 260 261 262 262 261 260 260 260 261 261 262 262 262 261 261 262 262 261 260 259 257 256 256 257 257 256 256 256 255
253 253 254 254 256 256 257 258 259 259 259 260 260 261 261 261 261 262 261 260 260 260 260 260 261 261 262 262 261 262 261 261 261 259 258 257 256 257 256 256 256 255 254